RYR5XB EIDW-EGHQ

Flight info

Callsign RYR5XB
Flight time 0h 43m
Altitude 19000
Route PESIT2J PESIT DCT BAKUR N24 GUBJE DCT TIKCA
Aircraft A20N/M-SDE2E3FGHIRWXY/LB1

Departure

Time 2026-05-05 19:16
Airport Dublin Airport (EIDW)

Arrival

Time 2026-05-05 19:59
Airport Cornwall Airport Newquay (EGHQ)
Time Latitude Longitude Altitude Speed Heading
2026-05-05 18:52 53.43101 -6.24965 225 ft 0 kts 185°
2026-05-05 19:09 53.43117 -6.24963 224 ft 2 kts 185°
2026-05-05 19:10 53.43133 -6.24960 226 ft 2 kts 180°
2026-05-05 19:10 53.43149 -6.24958 226 ft 2 kts 181°
2026-05-05 19:10 53.43166 -6.24957 226 ft 2 kts 180°
2026-05-05 19:10 53.43182 -6.24956 225 ft 2 kts 176°
2026-05-05 19:11 53.43199 -6.24958 224 ft 2 kts 168°
2026-05-05 19:11 53.43214 -6.24969 224 ft 2 kts 106°
2026-05-05 19:11 53.43215 -6.24982 228 ft 0 kts 97°
2026-05-05 19:11 53.43215 -6.24960 225 ft 4 kts 89°
2026-05-05 19:12 53.43213 -6.24883 224 ft 9 kts 92°
2026-05-05 19:12 53.43207 -6.24754 225 ft 13 kts 96°
2026-05-05 19:12 53.43195 -6.24584 225 ft 17 kts 99°
2026-05-05 19:12 53.43231 -6.24424 225 ft 16 kts 20°
2026-05-05 19:13 53.43332 -6.24349 225 ft 15 kts 63°
2026-05-05 19:13 53.43334 -6.24163 224 ft 18 kts 96°
2026-05-05 19:13 53.43326 -6.23941 224 ft 19 kts 80°
2026-05-05 19:13 53.43342 -6.23886 225 ft 0 kts 36°
2026-05-05 19:14 53.43344 -6.23884 224 ft 2 kts 35°
2026-05-05 19:14 53.43375 -6.23868 224 ft 7 kts 12°
2026-05-05 19:14 53.43446 -6.23864 222 ft 13 kts 345°
2026-05-05 19:15 53.43492 -6.23994 223 ft 15 kts 279°
2026-05-05 19:15 53.43514 -6.24355 225 ft 69 kts 276°
2026-05-05 19:15 53.43581 -6.25619 223 ft 145 kts 275°
2026-05-05 19:15 53.43675 -6.27547 645 ft 169 kts 274°
2026-05-05 19:16 53.43751 -6.29473 1687 ft 165 kts 275°
2026-05-05 19:16 53.43812 -6.31395 2626 ft 168 kts 278°
2026-05-05 19:16 53.44199 -6.33320 3109 ft 185 kts 311°
2026-05-05 19:16 53.45240 -6.34765 3572 ft 207 kts 330°
2026-05-05 19:17 53.46509 -6.36037 4405 ft 212 kts 325°
2026-05-05 19:17 53.47642 -6.37768 5130 ft 231 kts 312°
2026-05-05 19:17 53.48650 -6.40022 5706 ft 253 kts 305°
2026-05-05 19:17 53.49660 -6.42534 6488 ft 264 kts 304°
2026-05-05 19:18 53.50724 -6.45096 7357 ft 270 kts 303°
2026-05-05 19:18 53.51444 -6.47988 8345 ft 272 kts 281°
2026-05-05 19:18 53.51443 -6.51195 8777 ft 280 kts 259°
2026-05-05 19:18 53.50605 -6.54113 8863 ft 281 kts 231°
2026-05-05 19:19 53.49038 -6.56100 9004 ft 287 kts 205°
2026-05-05 19:19 53.47083 -6.56859 9001 ft 292 kts 181°
2026-05-05 19:19 53.45760 -6.56564 8987 ft 291 kts 163°
2026-05-05 19:19 53.43900 -6.55221 9076 ft 293 kts 154°
2026-05-05 19:20 53.42080 -6.53673 9037 ft 293 kts 153°
2026-05-05 19:20 53.40259 -6.52176 9016 ft 291 kts 155°
2026-05-05 19:20 53.38418 -6.50754 9029 ft 292 kts 156°
2026-05-05 19:20 53.36562 -6.49376 9052 ft 292 kts 156°
2026-05-05 19:21 53.34703 -6.47997 9067 ft 292 kts 156°
2026-05-05 19:21 53.32847 -6.46634 9080 ft 292 kts 156°
2026-05-05 19:21 53.30979 -6.45285 9047 ft 294 kts 155°
2026-05-05 19:21 53.29106 -6.43887 9202 ft 296 kts 155°
2026-05-05 19:22 53.27238 -6.42419 9937 ft 297 kts 154°
2026-05-05 19:22 53.25353 -6.40929 10697 ft 309 kts 155°
2026-05-05 19:22 53.23330 -6.39342 11023 ft 332 kts 155°
2026-05-05 19:22 53.21177 -6.37667 11503 ft 348 kts 155°
2026-05-05 19:23 53.18963 -6.35951 12311 ft 352 kts 155°
2026-05-05 19:23 53.16726 -6.34223 13139 ft 357 kts 156°
2026-05-05 19:23 53.14455 -6.32471 13943 ft 362 kts 156°
2026-05-05 19:23 53.12160 -6.30703 14681 ft 365 kts 156°
2026-05-05 19:24 53.09843 -6.28920 15433 ft 369 kts 156°
2026-05-05 19:24 53.07499 -6.27119 16151 ft 373 kts 156°
2026-05-05 19:24 53.05134 -6.25304 16868 ft 377 kts 156°
2026-05-05 19:24 53.02742 -6.23470 17579 ft 381 kts 156°
2026-05-05 19:25 53.00326 -6.21621 18304 ft 384 kts 156°
2026-05-05 19:25 52.97885 -6.19755 18834 ft 389 kts 156°
2026-05-05 19:25 52.95454 -6.17898 19010 ft 390 kts 156°
2026-05-05 19:25 52.92990 -6.16014 19048 ft 389 kts 156°
2026-05-05 19:26 52.90537 -6.14126 19046 ft 389 kts 156°
2026-05-05 19:26 52.88085 -6.12237 19044 ft 389 kts 156°
2026-05-05 19:26 52.85627 -6.10346 19049 ft 389 kts 156°
2026-05-05 19:26 52.83172 -6.08462 19053 ft 389 kts 156°
2026-05-05 19:27 52.80719 -6.06582 19048 ft 389 kts 156°
2026-05-05 19:27 52.78264 -6.04703 19048 ft 389 kts 156°
2026-05-05 19:27 52.75805 -6.02825 19048 ft 389 kts 156°
2026-05-05 19:27 52.73345 -6.00948 19047 ft 389 kts 156°
2026-05-05 19:28 52.70891 -5.99078 19047 ft 389 kts 156°
2026-05-05 19:28 52.68435 -5.97209 19047 ft 388 kts 156°
2026-05-05 19:28 52.65980 -5.95343 19048 ft 389 kts 156°
2026-05-05 19:28 52.63527 -5.93480 19049 ft 389 kts 156°
2026-05-05 19:29 52.61069 -5.91617 19047 ft 389 kts 156°
2026-05-05 19:29 52.58616 -5.89759 19046 ft 389 kts 156°
2026-05-05 19:29 52.56162 -5.87903 19048 ft 388 kts 156°
2026-05-05 19:29 52.53705 -5.86047 19044 ft 388 kts 156°
2026-05-05 19:30 52.51253 -5.84198 19049 ft 389 kts 156°
2026-05-05 19:30 52.48796 -5.82347 19049 ft 388 kts 156°
2026-05-05 19:30 52.46343 -5.80501 19050 ft 388 kts 156°
2026-05-05 19:30 52.43885 -5.78654 19048 ft 388 kts 156°
2026-05-05 19:31 52.41432 -5.76813 19047 ft 388 kts 156°
2026-05-05 19:31 52.38929 -5.75174 19047 ft 387 kts 163°
2026-05-05 19:31 52.36348 -5.73922 19047 ft 387 kts 165°
2026-05-05 19:31 52.33762 -5.72678 19044 ft 387 kts 165°
2026-05-05 19:32 52.31179 -5.71428 19043 ft 387 kts 165°
2026-05-05 19:32 52.28597 -5.70177 19048 ft 387 kts 165°
2026-05-05 19:32 52.26013 -5.68925 19042 ft 387 kts 165°
2026-05-05 19:32 52.23449 -5.67568 19043 ft 388 kts 160°
2026-05-05 19:33 52.20954 -5.65881 19046 ft 388 kts 158°
2026-05-05 19:33 52.18461 -5.64188 19044 ft 388 kts 159°
2026-05-05 19:33 52.15965 -5.62499 19045 ft 388 kts 159°
2026-05-05 19:33 52.13463 -5.60813 19041 ft 388 kts 159°
2026-05-05 19:34 52.10967 -5.59135 19044 ft 389 kts 159°
2026-05-05 19:34 52.08466 -5.57454 19041 ft 389 kts 159°
2026-05-05 19:34 52.05962 -5.55795 19040 ft 388 kts 161°
2026-05-05 19:35 52.00719 -5.53888 19042 ft 387 kts 176°
2026-05-05 19:35 51.98044 -5.53446 19039 ft 387 kts 175°
2026-05-05 19:35 51.95406 -5.52999 19040 ft 386 kts 175°
2026-05-05 19:35 51.92735 -5.52538 19037 ft 386 kts 175°
2026-05-05 19:36 51.90087 -5.51837 19040 ft 387 kts 169°
2026-05-05 19:36 51.87459 -5.50878 19036 ft 387 kts 168°
2026-05-05 19:36 51.84834 -5.49905 19034 ft 387 kts 168°
2026-05-05 19:36 51.82207 -5.48928 19036 ft 387 kts 168°
2026-05-05 19:37 51.79586 -5.47957 19038 ft 387 kts 168°
2026-05-05 19:37 51.76963 -5.46989 19033 ft 387 kts 168°
2026-05-05 19:37 51.74340 -5.46024 19034 ft 387 kts 168°
2026-05-05 19:37 51.71717 -5.45062 19031 ft 387 kts 168°
2026-05-05 19:38 51.69091 -5.44098 19031 ft 387 kts 168°
2026-05-05 19:38 51.66470 -5.43139 19030 ft 387 kts 168°
2026-05-05 19:38 51.63845 -5.42182 19033 ft 387 kts 168°
2026-05-05 19:38 51.61222 -5.41227 19031 ft 387 kts 168°
2026-05-05 19:39 51.58594 -5.40270 19031 ft 387 kts 168°
2026-05-05 19:39 51.55971 -5.39315 19028 ft 387 kts 168°
2026-05-05 19:39 51.53343 -5.38360 19031 ft 387 kts 168°
2026-05-05 19:39 51.50715 -5.37406 19031 ft 387 kts 168°
2026-05-05 19:40 51.48090 -5.36453 19027 ft 387 kts 168°
2026-05-05 19:40 51.45460 -5.35500 19027 ft 387 kts 169°
2026-05-05 19:40 51.42831 -5.34550 19023 ft 388 kts 168°
2026-05-05 19:40 51.40202 -5.33599 19025 ft 387 kts 169°
2026-05-05 19:41 51.37570 -5.32649 19025 ft 388 kts 169°
2026-05-05 19:41 51.34935 -5.31699 19026 ft 388 kts 169°
2026-05-05 19:41 51.32308 -5.30753 19023 ft 387 kts 169°
2026-05-05 19:41 51.29675 -5.29808 19026 ft 388 kts 169°
2026-05-05 19:42 51.27043 -5.28864 19025 ft 387 kts 169°
2026-05-05 19:42 51.24412 -5.27919 19025 ft 388 kts 169°
2026-05-05 19:42 51.21781 -5.26975 19022 ft 387 kts 169°
2026-05-05 19:42 51.19149 -5.26032 19022 ft 388 kts 169°
2026-05-05 19:43 51.16515 -5.25091 19021 ft 388 kts 169°
2026-05-05 19:43 51.13885 -5.24151 19024 ft 388 kts 169°
2026-05-05 19:43 51.11250 -5.23210 19020 ft 388 kts 169°
2026-05-05 19:43 51.08624 -5.22274 18949 ft 387 kts 169°
2026-05-05 19:44 51.05998 -5.21338 18515 ft 388 kts 169°
2026-05-05 19:44 51.03348 -5.20398 17703 ft 393 kts 169°
2026-05-05 19:44 51.00661 -5.19446 16771 ft 397 kts 168°
2026-05-05 19:44 50.97968 -5.18490 16083 ft 395 kts 168°
2026-05-05 19:45 50.95297 -5.17543 15425 ft 391 kts 168°
2026-05-05 19:45 50.92651 -5.16606 14809 ft 388 kts 168°
2026-05-05 19:45 50.90065 -5.15693 14196 ft 385 kts 168°
2026-05-05 19:45 50.87463 -5.14774 13564 ft 382 kts 168°
2026-05-05 19:46 50.84881 -5.13862 12893 ft 379 kts 168°
2026-05-05 19:46 50.82318 -5.12959 12244 ft 376 kts 168°
2026-05-05 19:46 50.79726 -5.12048 11495 ft 376 kts 168°
2026-05-05 19:46 50.77189 -5.11156 10930 ft 372 kts 168°
2026-05-05 19:47 50.74678 -5.10274 10540 ft 363 kts 168°
2026-05-05 19:47 50.72293 -5.09438 10382 ft 349 kts 168°
2026-05-05 19:47 50.69940 -5.08613 10234 ft 335 kts 168°
2026-05-05 19:47 50.67824 -5.07873 10113 ft 322 kts 168°
2026-05-05 19:48 50.65685 -5.07124 9991 ft 309 kts 168°
2026-05-05 19:48 50.63614 -5.06400 9669 ft 303 kts 168°
2026-05-05 19:48 50.61553 -5.05683 9203 ft 303 kts 168°
2026-05-05 19:48 50.59496 -5.04967 8751 ft 302 kts 168°
2026-05-05 19:49 50.57449 -5.04253 8339 ft 301 kts 168°
2026-05-05 19:49 50.56100 -5.03784 8115 ft 298 kts 168°
2026-05-05 19:49 50.53400 -5.02848 7590 ft 296 kts 167°
2026-05-05 19:49 50.51393 -5.02150 7175 ft 295 kts 166°
2026-05-05 19:50 50.49524 -5.00880 6730 ft 294 kts 142°
2026-05-05 19:50 50.48170 -4.98527 6286 ft 290 kts 120°
2026-05-05 19:50 50.47113 -4.95835 5820 ft 290 kts 119°
2026-05-05 19:50 50.46304 -4.92969 5346 ft 285 kts 99°
2026-05-05 19:51 50.46130 -4.89898 4898 ft 281 kts 89°
2026-05-05 19:51 50.46051 -4.86839 4426 ft 281 kts 89°
2026-05-05 19:51 50.45974 -4.83784 3961 ft 280 kts 89°
2026-05-05 19:51 50.45899 -4.80739 3503 ft 280 kts 89°
2026-05-05 19:52 50.45812 -4.77690 3110 ft 278 kts 89°
2026-05-05 19:52 50.45720 -4.74722 2990 ft 266 kts 89°
2026-05-05 19:52 50.45440 -4.71944 2983 ft 255 kts 109°
2026-05-05 19:52 50.44425 -4.69769 2980 ft 245 kts 140°
2026-05-05 19:53 50.42913 -4.68750 2989 ft 236 kts 174°
2026-05-05 19:53 50.41197 -4.69110 2989 ft 268 kts 204°
2026-05-05 19:53 50.39556 -4.70388 2981 ft 251 kts 209°
2026-05-05 19:53 50.38085 -4.71603 2976 ft 233 kts 213°
2026-05-05 19:54 50.37004 -4.73258 2979 ft 208 kts 248°
2026-05-05 19:54 50.36686 -4.75315 2986 ft 182 kts 269°
2026-05-05 19:54 50.36563 -4.77150 2990 ft 161 kts 270°
2026-05-05 19:54 50.36527 -4.78772 2992 ft 134 kts 284°
2026-05-05 19:55 50.36794 -4.80267 2989 ft 146 kts 298°
2026-05-05 19:55 50.37229 -4.81613 2882 ft 132 kts 306°
2026-05-05 19:55 50.37706 -4.82841 2720 ft 130 kts 307°
2026-05-05 19:55 50.38165 -4.84045 2557 ft 132 kts 307°
2026-05-05 19:56 50.38633 -4.85266 2390 ft 130 kts 306°
2026-05-05 19:56 50.39096 -4.86486 2201 ft 130 kts 307°
2026-05-05 19:56 50.39556 -4.87690 2024 ft 127 kts 307°
2026-05-05 19:56 50.40010 -4.88878 1852 ft 127 kts 307°
2026-05-05 19:57 50.40463 -4.90066 1683 ft 127 kts 307°
2026-05-05 19:57 50.40767 -4.90866 1554 ft 127 kts 307°
2026-05-05 19:57 50.41365 -4.92436 1327 ft 126 kts 307°
2026-05-05 19:57 50.41813 -4.93609 1132 ft 126 kts 307°
2026-05-05 19:58 50.42262 -4.94785 909 ft 124 kts 307°
2026-05-05 19:58 50.42725 -4.95977 774 ft 134 kts 306°
2026-05-05 19:58 50.43197 -4.97246 562 ft 133 kts 305°
2026-05-05 19:58 50.43671 -4.98430 368 ft 122 kts 298°
2026-05-05 19:59 50.44027 -4.99378 333 ft 61 kts 302°
2026-05-05 19:59 50.44192 -4.99824 329 ft 47 kts 302°
2026-05-05 19:59 50.44347 -5.00254 333 ft 30 kts 302°
2026-05-05 19:59 50.44416 -5.00254 333 ft 9 kts 59°
2026-05-05 20:00 50.44433 -5.00199 333 ft 0 kts 67°
2026-05-05 20:00 50.44450 -5.00133 335 ft 13 kts 61°
2026-05-05 20:00 50.44497 -5.00120 335 ft 9 kts 318°
2026-05-05 20:00 50.44554 -5.00264 332 ft 23 kts 300°
2026-05-05 20:01 50.44613 -5.00443 329 ft 16 kts 312°
2026-05-05 20:01 50.44649 -5.00402 329 ft 12 kts 73°
2026-05-05 20:01 50.44653 -5.00381 328 ft 0 kts 73°